This demonstration page uses our WeatherBlox Daily Observations layout. Learn more.

39.92423, -83.80882

Hourly Observations for August 24, 2018

Temp ( °F °C ) Dew Point ( °F °C ) Humidity (%) Winds ( mph kmh ) Pressure ( in mb ) Visibility ( mi km ) Precip ( " mm )
12:56 am 00:56 Clear 56 13.3 55 12.8 97 97 SE 5 7 30.14 1021 10 16.0934 0 0
1:56 am 01:56 Clear 55 12.8 54 12.2 96 96 E 3 6 30.14 1021 10 16.0934 0 0
2:56 am 02:56 Clear 56 13.3 53 11.7 90 90 Calm 30.14 1021 10 16.0934 0 0
3:56 am 03:56 Clear 55 12.8 53 11.7 93 93 ESE 5 7 30.13 1020 10 16.0934 0 0
4:56 am 04:56 Clear 54 12.2 52 11.1 93 93 SE 5 7 30.13 1020 10 16.0934 0 0
5:56 am 05:56 Clear 54 12.2 51 10.6 90 90 SE 5 7 30.13 1020 10 16.0934 0 0
6:56 am 06:56 Sunny 54 12.2 51 10.6 90 90 ESE 5 7 30.15 1021 10 16.0934 0 0
7:56 am 07:56 Sunny 57 13.9 54 12.2 90 90 ESE 6 9 30.15 1021 10 16.0934 0 0
8:56 am 08:56 Sunny 64 17.8 58 14.4 81 81 SSE 8 13 30.15 1021 10 16.0934 0 0
9:56 am 09:56 Sunny 69 20.6 59 15 70 70 SSE 9 15 30.16 1022 10 16.0934 0 0
10:56 am 10:56 Sunny 72 22.2 59 15 64 64 SSE 9 15 30.15 1021 10 16.0934 0 0
11:56 am 11:56 Sunny 74 23.3 59 15 60 60 SSE 13 20 30.16 1021 10 16.0934 0 0
12:56 pm 12:56 Sunny 74 23.3 60 15.6 62 62 SSE 9 15 30.15 1021 10 16.0934 0 0
1:56 pm 13:56 Sunny 77 25 61 16.1 58 58 SSE 13 20 30.13 1020 10 16.0934 0 0
2:56 pm 14:56 Sunny 77 25 60 15.6 56 56 SSW 10 17 30.11 1020 10 16.0934 0 0
3:56 pm 15:56 Sunny 77 25 61 16.1 58 58 S 8 13 30.08 1019 10 16.0934 0 0
4:56 pm 16:56 Sunny 76 24.4 62 16.7 62 62 S 10 17 30.07 1018 10 16.0934 0 0
5:56 pm 17:56 Sunny 74 23.3 63 17.2 69 69 S 5 7 30.07 1018 10 16.0934 0 0
6:56 pm 18:56 Sunny 74 23.3 64 17.8 71 71 S 6 9 30.07 1018 10 16.0934 0 0
7:56 pm 19:56 Mostly Sunny 72 22.2 63 17.2 73 73 S 5 7 30.09 1019 10 16.0934 0 0
8:56 pm 20:56 Clear 69 20.6 63 17.2 81 81 S 3 6 30.09 1019 10 16.0934 0 0
9:56 pm 21:56 Partly Cloudy 67 19.4 63 17.2 87 87 SE 6 9 30.09 1019 10 16.0934 0 0
10:56 pm 22:56 Mostly Cloudy 68 20 63 17.2 84 84 SSE 6 9 30.08 1019 10 16.0934 0 0
11:56 pm 23:56 Cloudy 67 19.4 63 17.2 87 87 SSE 3 6 30.09 1019 10 16.0934 0 0

Powered by AerisWeather